Temp
9 9 8 7 7 7 7 7 7 6 6 6 6 6 6 5 5 5 5 6 6 6 6 6 6 7 6 7 7 7 7 7 7 7 7 7 6 7 7 6 7 7 7
9 8 7 7 7 7 7 7 6 6 6 6 6 6 5 5 5 5 5 6 6 6 6 6 6 6 7 6 6 6 6 6 6 6 6 6 6 6 6 6 6 6 7
9 8 7 7 7 7 6 6 6 6 6 5 5 5 5 5 5 5 5 5 5 6 6 6 6 6 6 6 6 6 6 6 6 6 6 6 6 6 6 5 6 6 6
8 8 7 7 7 7 7 7 7 6 6 5 5 5 5 4 5 5 4 5 5 5 5 6 6 6 6 6 6 6 6 6 6 6 6 6 6 6 6 6 6 6 6
8 7 7 7 7 7 7 7 7 6 6 5 5 5 5 5 5 5 4 4 4 4 5 5 5 5 5 5 5 5 5 5 6 6 5 6 6 6 6 6 6 6 6
7 7 7 7 7 7 7 7 7 6 6 5 5 4 5 4 4 4 3 3 4 4 5 5 6 4 5 5 4 5 4 4 5 5 5 5 6 5 6 6 6 6 6
7 7 7 7 7 7 7 7 7 6 5 5 4 4 4 4 4 4 4 3 3 4 4 5 5 5 5 4 4 2 4 5 5 5 5 5 5 5 5 6 6 6 6
7 7 7 7 7 7 7 7 7 6 5 4 4 4 4 4 4 4 4 3 4 5 4 4 4 5 4 4 3 4 4 4 5 5 5 5 5 5 5 5 5 6 6
7 7 7 7 7 7 7 7 7 6 5 5 4 3 3 4 4 4 3 4 4 4 4 4 4 4 3 3 4 3 3 4 4 4 4 5 5 4 5 6 5 5 5
7 7 6 7 7 7 7 7 7 6 6 5 4 4 4 3 4 4 3 4 4 3 4 4 4 4 2 4 3 3 3 4 4 4 4 4 4 4 5 5 5 5 5
6 6 6 7 6 6 7 7 6 6 6 5 4 4 4 3 3 3 3 2 5 4 4 3 3 3 2 3 3 3 3 3 3 4 4 4 4 4 4 5 5 5 5
6 6 6 6 6 6 7 7 6 6 5 4 4 3 4 3 3 3 3 4 4 4 3 3 3 2 2 4 3 3 3 3 4 4 4 4 4 4 5 4 4 5 5
6 6 6 6 6 6 6 6 6 5 5 4 4 4 4 4 3 4 3 2 2 3 3 3 3 3 2 2 3 3 3 4 4 4 4 5 5 4 5 5 5 5 5
6 5 5 6 5 6 6 6 6 5 4 4 4 3 3 3 3 2 3 2 2 2 2 2 3 2 2 3 3 3 3 3 3 3 4 4 4 5 5 4 5 5 5
6 6 5 5 5 5 5 6 5 5 5 3 2 3 3 2 3 3 2 2 2 1 2 2 2 2 1 2 2 2 3 3 3 4 4 4 4 4 4 4 4 5 5
5 5 5 5 5 5 5 5 5 4 4 3 3 3 3 3 2 2 2 2 2 1 2 1 0 0 1 1 2 2 3 3 3 3 4 4 4 4 4 4 4 4 5
6 5 5 5 5 4 4 5 4 3 4 3 3 3 3 2 3 2 2 2 1 1 1 0 0 0 1 2 2 2 3 3 3 3 3 4 4 4 4 4 4 4 4
5 5 5 5 4 4 4 4 4 3 3 3 3 2 2 1 2 2 2 1 2 1 -0 1 1 1 2 2 2 2 3 2 3 3 3 3 3 3 3 3 3 4 4
4 4 4 4 4 4 4 4 4 3 2 2 2 2 1 2 1 1 0 -0 -1 -1 1 1 2 2 2 2 2 2 2 2 3 2 3 2 3 3 3 3 3 3 3
4 4 3 3 3 3 3 3 3 3 2 2 2 2 1 1 1 1 1 0 -0 0 1 1 2 2 1 2 2 2 2 2 2 2 2 2 2 2 3 3 2 3 3
4 4 4 3 3 3 3 3 3 3 2 1 1 1 1 1 1 0 0 0 0 1 1 1 1 1 2 1 1 2 2 1 2 1 1 2 2 2 2 2 2 2 2
4 4 3 3 3 2 2 2 3 3 1 1 1 1 1 0 0 0 0 -0 -0 -0 0 0 1 1 1 1 1 0 1 1 1 1 1 1 1 1 2 2 2 2 2
4 4 2 3 3 2 2 2 2 2 1 -1 0 0 0 -0 0 0 -0 -0 -1 -1 -1 -0 -0 -0 -0 -0 -0 -0 0 1 0 0 1 1 1 1 1 1 2 2 1
3 3 3 2 2 2 2 2 2 2 1 0 -0 -1 -0 0 -1 -0 -1 -0 -0 -1 -1 -0 -0 -1 -1 -1 -1 -1 -1 -0 -0 0 0 0 1 1 1 1 1 1 1
3 3 2 2 2 2 1 1 1 1 -1 -2 -0 -1 -1 -0 -0 -0 -0 -0 -1 -1 -1 -1 -1 -1 -1 -1 -1 -1 -1 -1 -1 -1 -1 -1 -0 -0 1 1 1 1 1
2 2 2 2 2 1 0 0 1 1 0 -1 -2 -1 -1 -1 -1 -1 -1 -1 -1 -1 -1 -1 -1 -1 -1 -1 -1 -1 -1 -1 -2 -2 -2 -2 -1 -1 -1 -1 -1 -0 -0
Height
3115 3114 3114 3115 3115 3115 3115 3115 3115 3116 3115 3116 3117 3119 3120 3122 3124 3126 3129 3132 3133 3133 3134 3135 3137 3138 3140 3142 3145 3147 3149 3151 3152 3154 3154 3156 3158 3160 3161 3164 3166 3169 3171
3112 3111 3111 3112 3113 3113 3112 3112 3112 3112 3113 3114 3115 3116 3118 3119 3121 3123 3127 3129 3130 3132 3133 3134 3136 3137 3139 3141 3144 3146 3149 3151 3153 3155 3156 3158 3160 3162 3164 3166 3169 3170 3172
3108 3108 3108 3109 3110 3110 3109 3109 3109 3109 3110 3111 3113 3113 3114 3116 3118 3120 3121 3126 3129 3130 3131 3132 3133 3135 3137 3140 3143 3146 3149 3151 3154 3155 3157 3159 3161 3164 3166 3167 3170 3172 3173
3105 3105 3105 3106 3106 3107 3106 3106 3106 3106 3106 3108 3109 3110 3112 3114 3115 3117 3117 3120 3125 3127 3128 3131 3131 3133 3135 3138 3141 3145 3148 3151 3154 3157 3158 3160 3162 3165 3167 3169 3171 3174 3175
3102 3101 3102 3103 3103 3103 3103 3103 3102 3103 3103 3104 3106 3107 3109 3111 3112 3113 3114 3119 3119 3123 3127 3127 3127 3130 3134 3136 3139 3143 3148 3151 3154 3157 3159 3162 3164 3165 3168 3170 3172 3175 3177
3098 3098 3098 3099 3099 3099 3099 3099 3099 3100 3100 3102 3103 3104 3105 3108 3109 3112 3112 3113 3116 3118 3124 3125 3116 3122 3129 3133 3137 3139 3143 3150 3154 3157 3160 3162 3165 3166 3169 3171 3173 3175 3177
3095 3095 3095 3095 3095 3096 3096 3095 3096 3097 3098 3100 3100 3101 3102 3103 3106 3107 3109 3109 3112 3109 3120 3123 3125 3127 3128 3131 3134 3140 3147 3151 3154 3157 3160 3162 3165 3167 3169 3171 3173 3175 3177
3091 3091 3091 3092 3092 3092 3092 3092 3093 3094 3095 3096 3096 3097 3099 3101 3102 3103 3106 3108 3110 3103 3118 3122 3125 3127 3130 3128 3135 3141 3147 3150 3153 3157 3160 3163 3165 3167 3169 3171 3174 3175 3177
3088 3088 3087 3088 3089 3089 3089 3089 3089 3091 3092 3092 3092 3093 3094 3096 3097 3101 3103 3103 3107 3113 3117 3120 3122 3125 3127 3132 3135 3138 3143 3147 3152 3156 3160 3163 3164 3167 3169 3171 3174 3175 3177
3083 3084 3084 3085 3086 3085 3086 3086 3086 3087 3087 3088 3089 3090 3091 3092 3094 3099 3091 3090 3103 3105 3112 3119 3122 3123 3126 3131 3136 3140 3143 3148 3152 3156 3159 3161 3164 3165 3169 3171 3173 3174 3176
3079 3080 3080 3082 3082 3082 3082 3083 3083 3084 3084 3084 3085 3088 3089 3087 3092 3095 3073 3079 3102 3108 3112 3116 3120 3123 3126 3131 3135 3140 3144 3147 3151 3155 3157 3160 3163 3165 3168 3169 3172 3173 3174
3074 3075 3076 3078 3078 3078 3079 3080 3080 3081 3080 3080 3080 3084 3086 3086 3089 3089 3085 3096 3104 3107 3110 3115 3119 3121 3126 3129 3133 3138 3142 3146 3150 3154 3156 3159 3162 3164 3166 3169 3171 3172 3174
3070 3070 3072 3073 3074 3074 3075 3076 3076 3077 3077 3077 3078 3080 3083 3085 3088 3091 3092 3099 3102 3107 3112 3114 3118 3122 3124 3128 3133 3137 3141 3145 3148 3151 3154 3157 3159 3162 3164 3167 3169 3170 3172
3065 3066 3068 3069 3070 3071 3072 3072 3073 3073 3074 3075 3077 3078 3081 3083 3086 3090 3092 3096 3100 3106 3108 3112 3115 3120 3124 3129 3132 3136 3140 3143 3146 3149 3152 3154 3157 3159 3162 3164 3166 3168 3169
3059 3062 3063 3065 3067 3067 3068 3069 3070 3070 3071 3071 3074 3077 3079 3081 3082 3086 3089 3093 3096 3101 3106 3109 3112 3117 3122 3127 3131 3134 3138 3141 3144 3146 3150 3152 3155 3157 3160 3162 3164 3166 3167
3054 3056 3058 3061 3063 3064 3065 3066 3066 3068 3068 3069 3072 3074 3076 3079 3080 3083 3085 3089 3093 3096 3102 3106 3111 3116 3120 3124 3128 3132 3135 3139 3142 3144 3147 3150 3152 3155 3157 3159 3162 3164 3166
3050 3050 3052 3055 3058 3060 3061 3063 3064 3065 3067 3068 3070 3072 3071 3074 3077 3080 3083 3085 3089 3094 3098 3104 3110 3113 3117 3122 3125 3129 3133 3137 3140 3143 3144 3148 3150 3152 3154 3156 3158 3160 3162
3041 3044 3046 3050 3052 3055 3057 3059 3061 3063 3065 3066 3068 3070 3072 3072 3075 3079 3080 3084 3087 3092 3098 3104 3109 3113 3116 3120 3123 3127 3131 3134 3137 3140 3142 3144 3147 3149 3152 3154 3155 3157 3159
3033 3035 3039 3042 3046 3049 3052 3054 3056 3060 3062 3064 3066 3068 3071 3073 3075 3077 3081 3084 3088 3092 3098 3102 3107 3111 3115 3118 3122 3125 3128 3132 3134 3137 3139 3142 3145 3147 3149 3150 3152 3154 3156
3022 3025 3029 3034 3038 3041 3045 3048 3050 3054 3057 3060 3063 3066 3069 3073 3075 3077 3080 3085 3089 3094 3098 3102 3106 3109 3112 3116 3119 3123 3126 3129 3132 3134 3136 3139 3142 3144 3146 3148 3149 3150 3152
3011 3015 3019 3023 3028 3032 3037 3040 3044 3047 3052 3056 3060 3063 3067 3071 3075 3078 3081 3084 3088 3092 3097 3101 3104 3107 3111 3114 3117 3119 3123 3125 3127 3130 3133 3136 3138 3140 3143 3144 3145 3147 3148
3001 3005 3009 3014 3021 3025 3030 3034 3038 3042 3046 3051 3056 3060 3064 3068 3072 3076 3080 3084 3086 3090 3093 3098 3101 3104 3107 3109 3112 3115 3117 3121 3123 3127 3130 3132 3134 3136 3137 3138 3140 3141 3143
2991 2993 2997 3005 3012 3017 3021 3026 3030 3034 3039 3044 3049 3054 3059 3065 3069 3072 3076 3080 3083 3087 3091 3094 3097 3100 3104 3106 3108 3112 3114 3117 3120 3123 3126 3129 3130 3131 3131 3133 3135 3137 3138
2979 2984 2989 2994 3002 3008 3014 3019 3023 3027 3031 3038 3045 3050 3054 3059 3064 3068 3071 3076 3080 3084 3087 3090 3092 3095 3099 3102 3103 3106 3110 3113 3115 3119 3122 3123 3125 3126 3127 3128 3130 3132 3133
2968 2973 2980 2985 2993 2999 3006 3012 3016 3020 3025 3032 3038 3042 3048 3050 3056 3060 3064 3069 3073 3077 3080 3085 3088 3091 3094 3096 3100 3102 3105 3107 3109 3113 3116 3117 3118 3120 3121 3122 3124 3126 3127
2961 2964 2969 2976 2984 2992 2998 3004 3008 3013 3018 3022 3028 3034 3039 3043 3048 3053 3057 3062 3066 3070 3074 3078 3082 3085 3087 3091 3095 3097 3100 3104 3105 3110 3111 3112 3113 3114 3115 3117 3118 3120 3121
Wind_Speed
15 18 12 14 15 16 13 14 14 13 11 10 11 12 14 17 17 17 15 15 17 16 15 16 15 15 16 17 16 15 14 14 16 16 15 17 20 22 23 23 22 22 22
18 16 13 14 15 15 15 15 15 14 12 11 11 13 17 19 20 19 18 18 18 18 18 17 17 17 17 18 18 17 16 16 17 17 18 19 21 21 23 23 22 22 22
19 15 12 13 14 16 17 17 17 15 14 13 14 17 18 18 22 24 23 23 20 19 19 18 18 19 20 20 19 19 18 17 18 20 20 21 21 21 23 23 21 21 21
20 14 12 15 16 17 17 17 18 17 16 16 17 19 19 18 23 19 25 22 22 22 21 20 20 21 21 21 21 21 20 19 19 19 20 20 21 21 20 21 21 20 20
18 15 16 16 17 16 16 17 18 15 15 17 18 20 21 20 21 19 26 27 25 24 23 22 23 25 22 24 27 25 21 20 19 19 18 19 19 20 19 19 18 17 16
18 15 14 16 15 15 16 16 17 13 16 17 19 20 20 20 21 21 15 31 28 27 23 22 21 18 27 26 31 31 22 20 19 19 19 18 18 18 17 17 17 15 14
17 15 15 14 14 15 15 15 15 11 13 17 20 22 20 19 19 19 18 19 16 22 24 24 21 20 23 24 21 29 22 21 20 19 18 17 17 17 17 16 16 15 14
18 16 15 16 15 15 13 13 13 11 14 18 21 22 20 20 20 22 23 24 16 21 22 19 22 22 20 29 30 27 23 21 20 18 17 16 16 16 15 15 14 14 14
18 17 15 14 14 13 13 11 12 12 13 16 18 18 22 23 23 21 22 27 25 26 25 19 24 23 19 28 25 23 22 23 19 19 18 17 16 17 16 15 12 11 12
18 17 15 14 15 13 12 10 11 11 15 18 17 18 17 22 24 24 31 31 36 34 25 23 27 31 10 26 23 21 23 23 22 20 20 18 14 14 15 14 13 12 11
18 17 16 16 16 14 13 11 11 11 13 15 18 15 15 20 19 8 24 46 37 26 26 26 23 19 29 23 21 21 20 20 21 20 20 19 16 14 13 13 13 13 13
18 19 18 18 16 15 14 12 11 11 12 13 18 18 15 17 17 19 12 32 32 26 27 25 18 18 30 25 24 23 21 19 19 20 19 18 17 16 15 14 14 13 13
19 19 18 17 16 16 16 12 11 12 9 10 13 13 15 16 17 21 19 18 24 26 20 24 25 22 21 25 19 19 19 20 19 19 19 18 17 17 17 15 15 15 15
19 17 18 16 15 16 16 14 11 11 10 11 16 11 13 15 18 15 14 16 20 22 25 30 28 25 26 22 20 20 19 20 19 18 18 18 17 18 16 14 15 15 15
23 18 17 18 16 17 17 13 11 11 10 13 18 15 16 17 20 17 17 16 17 26 23 21 28 22 29 22 21 20 20 20 19 19 17 17 17 16 15 15 16 16 16
25 21 20 19 17 17 16 14 12 11 10 14 15 17 18 21 21 20 20 19 21 26 26 26 24 33 23 22 21 21 20 20 20 19 18 18 18 17 17 17 15 15 15
27 26 22 21 20 19 17 16 14 14 14 14 14 12 11 15 19 21 21 19 27 29 35 32 33 26 22 21 21 21 20 19 18 18 17 19 17 17 18 16 16 15 15
35 33 30 27 24 22 19 18 16 19 19 16 13 13 12 17 18 16 24 19 25 33 28 28 28 25 25 22 20 19 18 17 17 18 17 17 17 18 18 16 15 15 14
38 36 34 31 29 26 25 23 21 23 24 21 17 16 17 16 19 20 18 19 25 28 27 24 23 23 21 20 19 17 16 16 16 15 16 16 17 18 18 16 15 15 14
39 38 36 33 32 31 29 27 27 27 29 25 23 20 19 21 19 20 22 22 25 25 24 22 22 20 19 19 18 16 16 15 14 14 13 14 16 17 18 17 16 15 15
41 41 41 39 37 36 33 31 30 31 31 31 28 25 23 21 23 21 21 23 24 24 24 21 19 19 19 18 18 17 16 13 12 12 14 15 15 16 18 17 17 17 16
41 43 46 43 39 37 36 32 30 33 34 33 31 29 27 24 23 20 19 18 21 22 22 22 20 17 17 16 15 15 14 14 15 15 16 17 18 19 19 18 18 18 18
43 43 47 45 42 40 39 34 32 35 37 38 37 34 30 28 26 23 22 21 22 21 22 20 20 21 20 19 21 19 18 16 15 15 16 19 18 19 18 19 20 21 21
40 42 44 46 43 43 39 37 33 36 38 37 36 33 32 32 29 28 28 25 26 24 27 25 22 21 22 21 21 22 22 20 20 22 21 20 21 20 20 21 22 22 22
35 38 41 42 41 43 41 37 34 35 36 36 36 37 38 33 34 36 33 32 27 29 25 26 24 26 29 27 24 23 21 21 25 24 25 27 28 25 24 24 24 23 23
30 31 40 41 37 39 41 36 35 35 36 38 35 34 39 36 34 39 35 33 36 36 31 29 29 29 28 27 27 24 26 21 25 27 24 23 24 28 29 27 27 27 26
Wind_Direction
312 310 273 267 279 286 283 275 277 282 272 262 247 249 235 223 218 214 216 218 215 208 203 199 193 190 189 180 178 173 165 158 151 146 143 140 141 141 137 135 134 134 135
304 306 270 270 273 282 283 283 286 283 272 256 248 240 231 220 217 216 218 216 211 205 202 196 194 191 189 183 178 171 165 160 151 148 141 140 139 143 142 137 136 137 138
305 301 265 264 273 286 285 282 282 277 268 250 237 235 232 224 230 214 208 206 209 207 201 201 202 200 194 185 180 172 167 160 155 149 147 144 138 141 140 136 139 142 141
301 295 271 270 280 281 278 277 278 269 259 242 233 235 237 235 240 249 206 197 203 209 205 208 204 195 189 186 179 169 164 160 154 152 149 149 147 145 146 143 145 142 140
298 283 272 271 271 274 273 278 272 261 246 235 234 238 240 246 249 263 260 224 200 202 202 203 201 187 188 181 176 163 162 160 156 154 151 152 150 150 152 150 147 146 148
293 276 271 267 269 268 273 275 266 250 240 237 236 242 245 244 243 241 264 222 207 194 194 192 189 166 176 180 172 161 155 161 159 155 156 154 155 155 156 154 154 156 156
288 274 275 262 268 268 272 271 264 248 250 241 239 242 243 241 245 248 243 227 177 185 186 196 204 195 186 184 199 153 163 164 164 161 156 159 163 162 160 160 162 163 162
280 269 271 263 263 267 270 269 264 244 251 244 241 241 241 238 239 243 237 219 229 180 185 200 197 200 169 153 156 160 157 159 159 159 154 159 163 163 164 164 169 160 157
274 264 270 259 255 264 265 265 261 250 247 248 246 239 233 237 240 246 229 233 213 193 198 204 200 171 159 160 157 157 163 157 160 160 158 161 173 168 167 163 157 161 162
265 261 263 258 255 260 265 266 261 254 252 258 243 228 228 230 236 250 241 216 191 205 173 191 194 184 199 165 163 164 168 169 171 168 167 167 170 166 162 168 171 170 173
265 258 257 258 256 261 262 266 264 257 258 255 250 219 228 233 229 259 166 176 172 180 192 200 184 182 167 172 167 168 174 172 172 176 181 182 186 189 184 188 183 185 192
258 253 254 258 259 257 256 261 264 256 259 252 248 219 216 226 223 217 179 173 185 171 185 179 181 181 168 171 164 173 179 182 184 186 193 196 197 204 207 203 204 208 210
253 250 253 260 254 254 257 255 252 253 248 247 233 213 197 206 213 221 184 218 168 177 190 198 198 192 175 171 186 189 192 192 191 194 199 204 205 210 214 213 217 221 226
255 251 252 254 253 250 254 256 254 246 237 214 184 222 199 196 195 224 229 247 213 205 216 213 215 208 211 183 190 191 192 191 191 193 194 201 203 207 211 209 213 217 224
251 252 254 254 251 248 245 246 247 247 233 213 180 198 201 211 210 215 220 232 221 196 198 206 202 194 181 186 193 195 195 196 196 197 197 202 207 210 213 217 219 220 224
251 255 261 257 250 243 241 238 233 228 219 192 192 204 214 219 214 212 208 215 203 171 187 175 185 178 186 192 198 202 201 200 199 198 200 208 212 214 216 219 221 225 228
250 255 255 252 246 241 237 236 223 202 197 179 170 172 181 193 197 189 187 189 193 191 173 168 173 186 194 193 195 199 201 203 208 210 207 216 218 219 221 219 223 229 235
251 251 257 253 245 236 236 235 224 203 193 195 180 163 160 163 174 191 186 181 180 175 164 178 180 185 187 191 198 202 208 209 212 214 216 219 220 222 226 225 229 235 241
248 249 247 245 242 236 234 235 226 208 200 196 197 178 162 161 156 148 146 153 170 164 170 172 183 183 187 195 202 205 212 217 218 220 223 226 228 230 233 234 238 241 246
237 239 237 239 235 233 229 230 225 214 206 197 191 190 175 169 164 159 157 161 164 170 181 184 187 195 194 193 203 206 213 218 220 223 228 236 240 241 241 245 251 249 253
235 236 234 235 230 227 227 226 225 221 212 204 195 191 187 179 181 180 177 174 177 182 185 193 195 196 202 201 200 201 206 214 219 225 225 233 238 241 245 246 250 253 255
232 236 233 232 230 226 226 226 229 223 214 209 203 199 197 198 201 197 201 198 192 191 193 197 200 205 212 211 214 212 211 219 224 228 231 233 235 236 237 242 246 248 250
233 234 229 229 230 226 224 225 227 222 215 211 209 206 205 208 209 209 215 212 218 200 203 207 207 205 206 219 225 224 230 229 237 242 243 243 244 247 250 249 250 252 253
230 234 229 224 226 225 222 225 229 229 218 216 215 217 214 218 219 218 209 220 221 219 213 216 209 209 224 222 227 246 245 242 246 254 256 258 258 260 259 258 259 262 265
224 228 224 226 221 220 219 222 225 224 222 214 218 221 224 222 221 219 225 227 227 226 221 234 224 229 229 227 222 234 242 245 252 258 254 256 259 259 259 260 261 261 263
225 220 218 221 222 214 215 218 221 220 219 215 221 220 230 226 233 228 229 225 230 231 230 220 223 230 229 239 240 238 244 247 261 261 260 265 259 255 252 253 254 256 257